Погода в Зирган

Россия / Республика Башкортостан     53°13′22″N   55°55′06″E
темп.,
°C
ветер,
м/с
пор.,
м/с
влажн.,
%
обл.,
%
осадки,
мм/ч
давл.,
гПа
погр.,
м
27 февраля, сб
сб2723:00−19ююв6148877 0.0 1021426
02:00−18ююв7158986 0.0 1018454
05:00−16ююв9178893 0.0 1014576
08:00−14ююв101993100 2.5 1010643
11:00−13ююв91692100 3.9 1007615
14:00−8ююв81492100 0.8 1005626
17:00−5ююв61194100 1.1 1003483
20:00−5ююв4896100 0.6 1002314
28 февраля, вс
вс2823:00−4ююв2697100 1.6 1001224
02:00−3ююв2797100 1.3 1000212
05:00−3ю2798100 2.2 1000281
08:00−3ю3697100 1.0 999239
11:00−1ююз3597100 1.8 999349
14:000зюз23100100 0.6 1000329
17:00−6ссз469799 1.1 1002253
20:00−10ссз369796 0.3 1005193
1 марта, пн
пн123:00−13сз239896 0.3 100874
02:00−15сз1198100 0.1 101020
05:00−15ссз2297100 0.3 101282
08:00−16ссз239791 0.2 1014116
11:00−15ссз239591 0.3 1015244
14:00−14ссз3494100 0.1 1016335
17:00−15ссз3495100 0.1 1017308
20:00−20ссз23100100 0.0 101929
2 марта, вт
вт223:00−22сз12100100 0.1 102020
02:00−24сз11100100 0.0 102020
05:00−25ююз11100100 0.1 102120
08:00−25ююв239986 0.0 102024
11:00−20ю359660 0.0 1019231
14:00−16ю589278 0.0 1017368
17:00−16ю6109284 0.0 1016403
20:00−18ююв61294100 0.0 1015397
3 марта, ср
ср323:00−17ююв51295100 0.5 1014433
02:00−16ююв51195100 0.6 1011384
05:00−15ююв4995100 1.2 1009328
08:00−13юв399599 0.4 1007289
11:00−8ююв51094100 0.9 1006428
14:00−3ююв61094100 0.6 1004747
17:00−3ююв61095100 1.4 1003629
20:00−3юв4996100 0.6 1002427